| time (UTC) | temp F | wind direction | speed MPH | gust MPH | rain 1hr in | rain 24hr in | rain mn in | humidity % | barometer mb |
| 20260903131005 | 81 | 87 | 0.0 | 2.0 | 0.00 | 0.42 | 0.01 | 93 | 1014.2 |
| 20260903130005 | 81 | 85 | 0.0 | 2.0 | 0.00 | 0.42 | 0.01 | 95 | 1014.1 |
| 20260903125005 | 80 | 97 | 0.0 | 1.0 | 0.00 | 0.42 | 0.01 | 98 | 1014.1 |
| 20260903124005 | 80 | 86 | 0.0 | 4.0 | 0.00 | 0.42 | 0.01 | 99 | 1014.0 |
| 20260903123005 | 79 | 87 | 0.0 | 1.0 | 0.01 | 0.42 | 0.01 | 99 | 1014.0 |
| 20260903122005 | 79 | 82 | 0.0 | 2.0 | 0.01 | 0.42 | 0.01 | 99 | 1013.9 |
| 20260903121005 | 79 | 0 | 0.0 | 0.0 | 0.01 | 0.42 | 0.01 | 99 | 1013.8 |
| 20260903120005 | 78 | 0 | 0.0 | 0.0 | 0.01 | 0.42 | 0.01 | 99 | 1013.8 |
| 20260903115004 | 77 | 0 | 0.0 | 0.0 | 0.01 | 0.42 | 0.01 | 99 | 1013.7 |
| 20260903114004 | 77 | 0 | 0.0 | 0.0 | 0.01 | 0.42 | 0.01 | 99 | 1013.2 |
| 20260903113005 | 76 | 0 | 0.0 | 0.0 | 0.00 | 0.41 | 0.00 | 99 | 1013.3 |
| 20260903112004 | 76 | 0 | 0.0 | 0.0 | 0.00 | 0.41 | 0.00 | 99 | 1013.0 |
| 20260903111004 | 76 | 0 | 0.0 | 0.0 | 0.00 | 0.41 | 0.00 | 99 | 1013.4 |
| 20260903110005 | 76 | 0 | 0.0 | 0.0 | 0.00 | 0.41 | 0.00 | 99 | 1013.1 |
| 20260903105004 | 76 | 0 | 0.0 | 0.0 | 0.00 | 0.41 | 0.00 | 99 | 1012.9 |
| 20260903104005 | 76 | 0 | 0.0 | 0.0 | 0.00 | 0.41 | 0.00 | 99 | 1012.8 |
| 20260903103215 | 76 | 0 | 0.0 | 0.0 | 0.00 | 0.41 | 0.00 | 99 | 1013.0 |
| 20260903102004 | 76 | 0 | 0.0 | 0.0 | 0.00 | 0.41 | 0.00 | 99 | 1012.4 |
| 20260903101005 | 76 | 0 | 0.0 | 0.0 | 0.00 | 0.41 | 0.00 | 99 | 1012.4 |
| 20260903100005 | 76 | 0 | 0.0 | 0.0 | 0.00 | 0.41 | 0.00 | 99 | 1012.5 |
| 20260903095005 | 76 | 0 | 0.0 | 0.0 | 0.00 | 0.41 | 0.00 | 99 | 1012.4 |
| 20260903094005 | 76 | 0 | 0.0 | 0.0 | 0.00 | 0.41 | 0.00 | 99 | 1012.1 |
| 20260903093004 | 76 | 0 | 0.0 | 0.0 | 0.00 | 0.41 | 0.00 | 99 | 1012.4 |
| 20260903092005 | 76 | 0 | 0.0 | 0.0 | 0.00 | 0.41 | 0.00 | 99 | 1012.2 |
| 20260903091004 | 76 | 0 | 0.0 | 0.0 | 0.00 | 0.41 | 0.00 | 99 | 1012.5 |
| 20260903090005 | 76 | 0 | 0.0 | 0.0 | 0.00 | 0.41 | 0.00 | 99 | 1012.5 |
| 20260903085005 | 76 | 0 | 0.0 | 0.0 | 0.00 | 0.41 | 0.00 | 99 | 1012.4 |
| 20260903084004 | 76 | 0 | 0.0 | 0.0 | 0.00 | 0.41 | 0.00 | 99 | 1012.2 |
| 20260903083005 | 77 | 0 | 0.0 | 0.0 | 0.00 | 0.41 | 0.00 | 99 | 1012.3 |
| 20260903082004 | 77 | 0 | 0.0 | 0.0 | 0.00 | 0.41 | 0.00 | 99 | 1012.3 |
| 20260903081004 | 77 | 0 | 0.0 | 0.0 | 0.00 | 0.41 | 0.00 | 99 | 1012.4 |
| 20260903080005 | 77 | 0 | 0.0 | 0.0 | 0.00 | 0.41 | 0.00 | 99 | 1012.2 |
| 20260903075005 | 76 | 0 | 0.0 | 0.0 | 0.00 | 0.41 | 0.00 | 99 | 1012.0 |
| 20260903074005 | 77 | 0 | 0.0 | 0.0 | 0.00 | 0.41 | 0.00 | 99 | 1012.6 |
| 20260903073005 | 77 | 0 | 0.0 | 0.0 | 0.00 | 0.41 | 0.00 | 99 | 1012.5 |
| 20260903072218 | 77 | 0 | 0.0 | 0.0 | 0.00 | 0.41 | 0.00 | 98 | 1012.7 |
| 20260903071005 | 77 | 0 | 0.0 | 0.0 | 0.00 | 0.41 | 0.00 | 98 | 1012.9 |
| 20260903070005 | 77 | 78 | 0.0 | 2.0 | 0.00 | 0.41 | 0.00 | 98 | 1013.0 |
| 20260903065005 | 77 | 0 | 0.0 | 0.0 | 0.00 | 0.41 | 0.00 | 98 | 1013.0 |
| 20260903064005 | 77 | 0 | 0.0 | 0.0 | 0.00 | 0.41 | 0.00 | 98 | 1013.2 |
| 20260903063004 | 77 | 0 | 0.0 | 0.0 | 0.00 | 0.41 | 0.00 | 98 | 1013.2 |
| 20260903062005 | 78 | 0 | 0.0 | 0.0 | 0.00 | 0.41 | 0.00 | 98 | 1013.1 |
| 20260903061005 | 78 | 83 | 0.0 | 0.0 | 0.00 | 0.41 | 0.00 | 98 | 1013.5 |
| 20260903060005 | 78 | 85 | 0.0 | 2.0 | 0.00 | 0.41 | 0.00 | 98 | 1013.5 |
| 20260903055005 | 78 | 84 | 0.0 | 1.0 | 0.00 | 0.41 | 0.00 | 97 | 1013.4 |
| 20260903054005 | 78 | 86 | 0.0 | 1.0 | 0.00 | 0.41 | 0.00 | 97 | 1013.7 |
| 20260903053005 | 78 | 80 | 1.0 | 3.0 | 0.00 | 0.41 | 0.00 | 97 | 1013.5 |
| 20260903052005 | 78 | 74 | 0.0 | 1.0 | 0.00 | 0.41 | 0.00 | 97 | 1013.7 |
| 20260903051005 | 78 | 81 | 1.0 | 3.0 | 0.00 | 0.41 | 0.00 | 97 | 1013.6 |
| 20260903050005 | 78 | 81 | 1.0 | 3.0 | 0.00 | 0.41 | 0.00 | 97 | 1013.8 |
| 20260903045004 | 78 | 73 | 1.0 | 4.0 | 0.00 | 0.41 | 0.00 | 97 | 1013.9 |
| 20260903044218 | 78 | 73 | 0.0 | 2.0 | 0.00 | 0.41 | 0.00 | 97 | 1013.7 |
| 20260903043004 | 78 | 70 | 1.0 | 4.0 | 0.00 | 0.41 | 0.00 | 97 | 1013.9 |
| 20260903042005 | 78 | 83 | 1.0 | 3.0 | 0.00 | 0.41 | 0.00 | 97 | 1013.9 |
| 20260903041215 | 78 | 78 | 1.0 | 2.0 | 0.00 | 0.41 | 0.00 | 97 | 1014.0 |
| 20260903040027 | 78 | 84 | 1.0 | 2.0 | 0.00 | 0.41 | 0.00 | 97 | 1013.7 |
| 20260903035005 | 78 | 81 | 1.0 | 3.0 | 0.00 | 0.41 | 0.41 | 97 | 1014.0 |
| 20260903034218 | 78 | 80 | 0.0 | 2.0 | 0.00 | 0.41 | 0.41 | 97 | 1013.9 |
| 20260903033005 | 78 | 84 | 1.0 | 2.0 | 0.00 | 0.41 | 0.41 | 97 | 1014.1 |
| 20260903032004 | 78 | 78 | 0.0 | 2.0 | 0.00 | 0.41 | 0.41 | 96 | 1014.0 |
| 20260903031005 | 78 | 80 | 0.0 | 1.0 | 0.00 | 0.41 | 0.41 | 96 | 1014.1 |
| 20260903030005 | 78 | 0 | 0.0 | 0.0 | 0.00 | 0.41 | 0.41 | 96 | 1014.4 |
| 20260903025005 | 78 | 85 | 0.0 | 1.0 | 0.00 | 0.41 | 0.41 | 96 | 1014.5 |
| 20260903024005 | 78 | 73 | 0.0 | 2.0 | 0.00 | 0.41 | 0.41 | 96 | 1014.4 |
| 20260903023004 | 78 | 88 | 0.0 | 2.0 | 0.00 | 0.41 | 0.41 | 96 | 1014.6 |
| 20260903022005 | 78 | 78 | 1.0 | 3.0 | 0.00 | 0.41 | 0.41 | 96 | 1014.6 |
| 20260903021217 | 78 | 73 | 0.0 | 3.0 | 0.00 | 0.41 | 0.41 | 96 | 1014.3 |
| 20260903020005 | 78 | 82 | 1.0 | 3.0 | 0.00 | 0.41 | 0.41 | 96 | 1014.2 |
| 20260903015005 | 78 | 79 | 1.0 | 2.0 | 0.00 | 0.41 | 0.41 | 96 | 1014.2 |
| 20260903014005 | 78 | 74 | 1.0 | 3.0 | 0.00 | 0.41 | 0.41 | 96 | 1014.0 |
| 20260903013005 | 78 | 80 | 1.0 | 2.0 | 0.00 | 0.41 | 0.41 | 97 | 1013.9 |
| 20260903012005 | 78 | 91 | 1.0 | 3.0 | 0.00 | 0.41 | 0.41 | 97 | 1013.9 |
| 20260903011004 | 78 | 88 | 0.0 | 2.0 | 0.00 | 0.41 | 0.41 | 97 | 1014.2 |
| 20260903010005 | 78 | 90 | 0.0 | 2.0 | 0.00 | 0.41 | 0.41 | 97 | 1014.1 |
| 20260903005214 | 78 | 82 | 1.0 | 6.0 | 0.00 | 0.41 | 0.41 | 97 | 1013.9 |
| 20260903004004 | 78 | 78 | 1.0 | 4.0 | 0.00 | 0.41 | 0.41 | 97 | 1013.9 |
| 20260903003005 | 78 | 79 | 0.0 | 2.0 | 0.00 | 0.41 | 0.41 | 97 | 1013.8 |
| 20260903002004 | 78 | 82 | 1.0 | 4.0 | 0.00 | 0.41 | 0.41 | 97 | 1013.8 |
| 20260903001218 | 78 | 81 | 0.0 | 3.0 | 0.00 | 0.41 | 0.41 | 97 | 1013.6 |
| 20260903000005 | 77 | 77 | 1.0 | 3.0 | 0.00 | 0.41 | 0.41 | 97 | 1013.6 |
| 20260902235004 | 77 | 79 | 0.0 | 2.0 | 0.00 | 0.41 | 0.41 | 98 | 1014.0 |
| 20260902234005 | 77 | 83 | 0.0 | 3.0 | 0.00 | 0.41 | 0.41 | 98 | 1014.0 |
| 20260902233005 | 77 | 94 | 0.0 | 3.0 | 0.00 | 0.41 | 0.41 | 98 | 1013.9 |
| 20260902232004 | 77 | 90 | 0.0 | 2.0 | 0.00 | 0.41 | 0.41 | 98 | 1013.7 |
| 20260902231004 | 77 | 81 | 0.0 | 1.0 | 0.00 | 0.41 | 0.41 | 98 | 1013.6 |
| 20260902230215 | 77 | 91 | 1.0 | 3.0 | 0.00 | 0.41 | 0.41 | 98 | 1013.7 |
| 20260902225004 | 77 | 85 | 2.0 | 8.0 | 0.00 | 0.41 | 0.41 | 98 | 1013.5 |
| 20260902224005 | 77 | 91 | 2.0 | 7.0 | 0.00 | 0.41 | 0.41 | 98 | 1013.8 |
| 20260902223004 | 77 | 87 | 3.0 | 7.0 | 0.00 | 0.41 | 0.41 | 98 | 1013.4 |
| 20260902222005 | 78 | 95 | 2.0 | 10.0 | 0.00 | 0.41 | 0.41 | 99 | 1013.4 |
| 20260902221005 | 78 | 92 | 1.0 | 3.0 | 0.00 | 0.41 | 0.41 | 99 | 1013.5 |
| 20260902220005 | 79 | 88 | 1.0 | 6.0 | 0.00 | 0.41 | 0.41 | 99 | 1013.2 |
| 20260902215005 | 79 | 84 | 1.0 | 4.0 | 0.00 | 0.41 | 0.41 | 99 | 1013.5 |
| 20260902214004 | 79 | 84 | 0.0 | 2.0 | 0.00 | 0.41 | 0.41 | 99 | 1013.4 |
| 20260902213005 | 79 | 77 | 1.0 | 2.0 | 0.00 | 0.41 | 0.41 | 99 | 1013.5 |
| 20260902212004 | 78 | 80 | 1.0 | 4.0 | 0.00 | 0.41 | 0.41 | 99 | 1013.6 |
| 20260902211005 | 78 | 77 | 1.0 | 3.0 | 0.02 | 0.41 | 0.41 | 98 | 1013.8 |
| 20260902210005 | 78 | 74 | 1.0 | 3.0 | 0.03 | 0.41 | 0.41 | 98 | 1013.8 |
| 20260902205005 | 78 | 83 | 2.0 | 4.0 | 0.03 | 0.41 | 0.41 | 98 | 1013.6 |
| 20260902204005 | 78 | 79 | 2.0 | 6.0 | 0.03 | 0.41 | 0.41 | 98 | 1014.0 |
| 20260902203004 | 78 | 81 | 2.0 | 8.0 | 0.30 | 0.41 | 0.41 | 98 | 1013.9 |
| 20260902202004 | 78 | 88 | 2.0 | 7.0 | 0.41 | 0.41 | 0.41 | 98 | 1013.8 |
| 20260902201216 | 78 | 83 | 3.0 | 10.0 | 0.39 | 0.39 | 0.39 | 98 | 1014.0 |
| 20260902200005 | 78 | 96 | 2.0 | 9.0 | 0.38 | 0.38 | 0.38 | 98 | 1014.0 |
| 20260902195005 | 78 | 99 | 1.0 | 3.0 | 0.38 | 0.38 | 0.38 | 98 | 1014.0 |
| 20260902194004 | 79 | 97 | 2.0 | 6.0 | 0.38 | 0.38 | 0.38 | 97 | 1013.9 |
| 20260902193214 | 79 | 83 | 4.0 | 10.0 | 0.19 | 0.19 | 0.21 | 96 | 1013.9 |
| 20260902192004 | 85 | 84 | 4.0 | 15.0 | 0.00 | 0.00 | 0.00 | 87 | 1013.8 |
| 20260902191005 | 86 | 85 | 2.0 | 8.0 | 0.00 | 0.00 | 0.00 | 83 | 1013.5 |
| 20260902190005 | 85 | 101 | 1.0 | 7.0 | 0.00 | 0.00 | 0.00 | 84 | 1013.7 |
| 20260902185218 | 85 | 91 | 1.0 | 6.0 | 0.00 | 0.00 | 0.00 | 84 | 1013.8 |
| 20260902184005 | 85 | 96 | 1.0 | 4.0 | 0.00 | 0.00 | 0.00 | 85 | 1014.0 |
| 20260902183004 | 85 | 90 | 1.0 | 3.0 | 0.00 | 0.00 | 0.00 | 85 | 1014.1 |
| 20260902182216 | 84 | 92 | 2.0 | 7.0 | 0.00 | 0.00 | 0.00 | 87 | 1014.1 |
| 20260902181005 | 84 | 88 | 2.0 | 5.0 | 0.00 | 0.00 | 0.00 | 86 | 1014.7 |
| 20260902180007 | 84 | 87 | 2.0 | 9.0 | 0.00 | 0.00 | 0.00 | 84 | 1014.7 |
| 20260902175005 | 83 | 92 | 2.0 | 9.0 | 0.00 | 0.00 | 0.00 | 85 | 1014.5 |
| 20260902174005 | 83 | 86 | 2.0 | 6.0 | 0.00 | 0.00 | 0.00 | 85 | 1014.6 |
| 20260902173004 | 85 | 92 | 1.0 | 4.0 | 0.00 | 0.00 | 0.00 | 83 | 1014.9 |
| 20260902172005 | 84 | 86 | 4.0 | 17.0 | 0.00 | 0.00 | 0.00 | 82 | 1015.0 |
| 20260902171005 | 86 | 90 | 3.0 | 9.0 | 0.00 | 0.00 | 0.00 | 82 | 1014.7 |
| 20260902170218 | 85 | 75 | 2.0 | 10.0 | 0.00 | 0.00 | 0.00 | 83 | 1014.9 |
| 20260902165214 | 85 | 94 | 2.0 | 7.0 | 0.00 | 0.00 | 0.00 | 84 | 1015.0 |
| 20260902164215 | 85 | 86 | 2.0 | 9.0 | 0.00 | 0.00 | 0.00 | 84 | 1015.0 |
| 20260902163005 | 85 | 89 | 2.0 | 4.0 | 0.00 | 0.00 | 0.00 | 84 | 1014.9 |
| 20260902162005 | 85 | 81 | 3.0 | 6.0 | 0.00 | 0.00 | 0.00 | 83 | 1015.0 |
| 20260902161218 | 85 | 80 | 3.0 | 9.0 | 0.00 | 0.00 | 0.00 | 81 | 1015.1 |
| 20260902160007 | 89 | 81 | 3.0 | 10.0 | 0.00 | 0.00 | 0.00 | 77 | 1015.1 |
| 20260902155004 | 86 | 98 | 2.0 | 7.0 | 0.00 | 0.00 | 0.00 | 78 | 1015.3 |
| 20260902154005 | 86 | 92 | 2.0 | 6.0 | 0.00 | 0.00 | 0.00 | 81 | 1015.4 |
| 20260902153004 | 87 | 95 | 2.0 | 5.0 | 0.00 | 0.00 | 0.00 | 79 | 1015.1 |
| 20260902152005 | 86 | 91 | 2.0 | 10.0 | 0.00 | 0.00 | 0.00 | 81 | 1015.6 |
| 20260902151214 | 87 | 96 | 2.0 | 7.0 | 0.00 | 0.00 | 0.00 | 80 | 1015.6 |
| 20260902150214 | 87 | 100 | 1.0 | 3.0 | 0.00 | 0.00 | 0.00 | 81 | 1015.2 |
| 20260902145216 | 84 | 114 | 1.0 | 4.0 | 0.00 | 0.00 | 0.00 | 87 | 1015.5 |
| 20260902144004 | 85 | 95 | 1.0 | 4.0 | 0.00 | 0.00 | 0.00 | 86 | 1015.3 |
| 20260902143005 | 85 | 101 | 2.0 | 8.0 | 0.00 | 0.00 | 0.00 | 85 | 1015.3 |
| 20260902142005 | 85 | 91 | 2.0 | 7.0 | 0.00 | 0.00 | 0.00 | 86 | 1015.3 |
| 20260902141214 | 85 | 103 | 2.0 | 8.0 | 0.00 | 0.00 | 0.00 | 85 | 1015.2 |
| 20260902140005 | 85 | 74 | 2.0 | 6.0 | 0.00 | 0.00 | 0.00 | 87 | 1015.2 |
| 20260902135004 | 85 | 324 | 2.0 | 5.0 | 0.00 | 0.00 | 0.00 | 87 | 1015.1 |
| 20260902134005 | 84 | 330 | 2.0 | 7.0 | 0.00 | 0.00 | 0.00 | 88 | 1015.3 |
| 20260902133005 | 84 | 41 | 1.0 | 4.0 | 0.00 | 0.00 | 0.00 | 87 | 1015.3 |
| 20260902132004 | 83 | 95 | 1.0 | 3.0 | 0.00 | 0.00 | 0.00 | 88 | 1015.3 |
| 20260902131215 | 83 | 101 | 1.0 | 2.0 | 0.00 | 0.00 | 0.00 | 88 | 1015.1 |